Etusivu
METAR-TAF:

METAR-TAF

Lentoasemat :

Price County Airport

Phillips, Wisconsin, Yhdysvallat

Leveyspiiri: 45-42N, Pituuspiiri: 090-24W, korkeus merenpinnasta: 449 m

Tämänhetkinen sää

Tämä raportti tehtiin 16 minuuttia sitten, kello 05.15 UTC
Tuuli 6 kn etelästä
Lämpötila -12°C
Kosteus 61%
Ilmanpaine 1019 hPa
Näkyvyys: 16.1 km
selkeää

METAR: KPBH 130515Z AUTO 18006KT 10SM CLR M12/M18 A3008 RMK AO2 T11201183

Aika: 23:31 (05:31 UTC)


TAF: puuttuu

Säähavainnot ja -ennusteet yli 4000 lentoasemalta (METAR- ja TAF-raportit).

Käytössä olevat sääasemat on merkitty karttaan keltaisilla ja punaisilla pisteillä.

Aseta hiiri pisteen päälle nähdäksesi sääaseman nimen.

Klikkaa sitten nähdäksesi säähavainnot ja -ennusteet.

Kartan vaihtaminen: klikkaa mustalla rastilla varustettuja vihreitä pisteitä, niin voit zoomata sisään; viivalla varustettua vihreää pistettä, niin voit zoomata ulos tai vihreitä nuolia, niin pääset viereisille kartoille.


METAR-TAF: